TimeEDT,TemperatureF,Dew PointF,Humidity,Sea Level PressureIn,VisibilityMPH,Wind Direction,Wind SpeedMPH,Gust SpeedMPH,PrecipitationIn,Events,Conditions,WindDirDegrees,DateUTC
12:15 AM,47.3,44.6,90,30.20,10.0,Calm,Calm,-,N/A,,Clear,0,2013-10-10 04:15:00
12:35 AM,46.0,43.7,92,30.20,10.0,Calm,Calm,-,N/A,,Clear,0,2013-10-10 04:35:00
12:54 AM,46.0,43.7,92,30.19,10.0,Calm,Calm,-,N/A,,Clear,0,2013-10-10 04:54:00
1:15 AM,46.4,43.5,90,30.19,10.0,Calm,Calm,-,N/A,,Clear,0,2013-10-10 05:15:00
1:35 AM,45.5,43.3,92,30.19,10.0,Calm,Calm,-,N/A,,Clear,0,2013-10-10 05:35:00
1:54 AM,45.0,41.9,89,30.19,10.0,Calm,Calm,-,N/A,,Clear,0,2013-10-10 05:54:00
2:15 AM,45.5,42.8,90,30.19,10.0,Calm,Calm,-,N/A,,Clear,0,2013-10-10 06:15:00
2:35 AM,46.8,43.0,87,30.19,10.0,Calm,Calm,-,N/A,,Clear,0,2013-10-10 06:35:00
2:55 AM,46.2,42.8,88,30.19,10.0,Calm,Calm,-,N/A,,Clear,0,2013-10-10 06:55:00
3:15 AM,46.4,42.3,85,30.19,10.0,Calm,Calm,-,N/A,,Clear,0,2013-10-10 07:15:00
3:35 AM,45.9,42.3,87,30.18,10.0,Calm,Calm,-,N/A,,Clear,0,2013-10-10 07:35:00
3:55 AM,45.9,42.6,88,30.18,10.0,Calm,Calm,-,N/A,,Clear,0,2013-10-10 07:55:00
4:15 AM,45.9,42.4,88,30.18,10.0,Calm,Calm,-,N/A,,Clear,0,2013-10-10 08:15:00
4:35 AM,45.7,42.8,90,30.18,10.0,Calm,Calm,-,N/A,,Clear,0,2013-10-10 08:35:00
4:55 AM,46.4,43.5,90,30.17,10.0,Calm,Calm,-,N/A,,Clear,0,2013-10-10 08:55:00
5:15 AM,46.4,43.5,90,30.18,10.0,Calm,Calm,-,N/A,,Clear,0,2013-10-10 09:15:00
5:35 AM,46.4,43.9,91,30.18,10.0,Calm,Calm,-,N/A,,Clear,0,2013-10-10 09:35:00
5:55 AM,46.2,44.1,92,30.18,10.0,Calm,Calm,-,N/A,,Clear,0,2013-10-10 09:55:00
6:15 AM,46.4,44.1,92,30.18,10.0,Calm,Calm,-,N/A,,Clear,0,2013-10-10 10:15:00
6:35 AM,46.0,44.1,93,30.18,10.0,Calm,Calm,-,N/A,,Clear,0,2013-10-10 10:35:00
6:55 AM,45.9,44.1,93,30.19,10.0,Calm,Calm,-,N/A,,Clear,0,2013-10-10 10:55:00
7:15 AM,44.2,43.0,95,30.19,10.0,ESE,3.5,-,N/A,,Clear,110,2013-10-10 11:15:00
7:35 AM,43.9,42.8,96,30.19,10.0,East,3.5,-,N/A,,Clear,100,2013-10-10 11:35:00
7:55 AM,45.5,43.9,94,30.19,10.0,ESE,3.5,-,N/A,,Clear,110,2013-10-10 11:55:00
8:15 AM,44.6,43.5,96,30.19,7.0,Calm,Calm,-,N/A,,Clear,0,2013-10-10 12:15:00
8:35 AM,45.1,43.9,95,30.19,7.0,Calm,Calm,-,N/A,,Clear,0,2013-10-10 12:35:00
8:55 AM,47.8,45.9,93,30.19,10.0,Calm,Calm,-,N/A,,Clear,0,2013-10-10 12:55:00
9:15 AM,50.2,47.1,89,30.19,10.0,Calm,Calm,-,N/A,,Clear,0,2013-10-10 13:15:00
9:35 AM,52.9,47.8,83,30.19,10.0,Calm,Calm,-,N/A,,Clear,0,2013-10-10 13:35:00
9:55 AM,54.9,48.0,78,30.20,10.0,Calm,Calm,-,N/A,,Clear,0,2013-10-10 13:55:00
10:15 AM,56.7,48.2,73,30.20,10.0,Calm,Calm,-,N/A,,Clear,0,2013-10-10 14:15:00
10:35 AM,58.6,48.7,70,30.20,10.0,Calm,Calm,-,N/A,,Clear,0,2013-10-10 14:35:00
10:54 AM,60.8,49.3,66,30.20,10.0,Calm,Calm,-,N/A,,Clear,0,2013-10-10 14:54:00
11:15 AM,62.8,49.8,63,30.20,10.0,Calm,Calm,-,N/A,,Clear,0,2013-10-10 15:15:00
11:35 AM,64.6,50.4,60,30.19,10.0,Calm,Calm,-,N/A,,Clear,0,2013-10-10 15:35:00
11:55 AM,67.3,50.4,55,30.19,10.0,Calm,Calm,-,N/A,,Clear,0,2013-10-10 15:55:00
12:15 PM,68.4,49.1,50,30.19,10.0,Calm,Calm,-,N/A,,Clear,0,2013-10-10 16:15:00
12:34 PM,69.6,47.8,46,30.19,10.0,Calm,Calm,-,N/A,,Clear,0,2013-10-10 16:34:00
12:55 PM,70.7,45.0,40,30.18,10.0,East,4.6,-,N/A,,Clear,100,2013-10-10 16:55:00
1:15 PM,71.4,45.3,39,30.18,10.0,ESE,5.8,-,N/A,,Clear,120,2013-10-10 17:15:00
1:34 PM,71.6,44.4,38,30.17,10.0,Calm,Calm,-,N/A,,Clear,0,2013-10-10 17:34:00
1:55 PM,71.6,42.1,34,30.16,10.0,West,3.5,-,N/A,,Clear,260,2013-10-10 17:55:00
2:14 PM,72.5,44.8,37,30.16,10.0,Calm,Calm,-,N/A,,Clear,0,2013-10-10 18:14:00
2:35 PM,70.2,52.5,53,30.15,10.0,NW,8.1,-,N/A,,Clear,310,2013-10-10 18:35:00
2:55 PM,69.6,51.8,53,30.14,10.0,NNW,3.5,-,N/A,,Clear,340,2013-10-10 18:55:00
3:14 PM,71.4,50.9,48,30.13,10.0,Calm,Calm,-,N/A,,Clear,0,2013-10-10 19:14:00
3:35 PM,72.1,50.0,46,30.12,10.0,WNW,5.8,-,N/A,,Clear,290,2013-10-10 19:35:00
3:55 PM,71.1,51.1,49,30.12,10.0,WNW,5.8,-,N/A,,Clear,290,2013-10-10 19:55:00
4:14 PM,70.0,52.5,54,30.12,10.0,WNW,6.9,-,N/A,,Clear,300,2013-10-10 20:14:00
4:35 PM,68.9,52.9,57,30.11,10.0,NNW,6.9,-,N/A,,Clear,330,2013-10-10 20:35:00
4:55 PM,68.9,52.5,56,30.11,10.0,NW,5.8,-,N/A,,Clear,320,2013-10-10 20:55:00
5:15 PM,68.5,55.0,62,30.11,10.0,WNW,3.5,-,N/A,,Clear,300,2013-10-10 21:15:00
5:35 PM,67.8,53.4,60,30.10,10.0,Calm,Calm,-,N/A,,Clear,0,2013-10-10 21:35:00
5:55 PM,68.0,52.5,58,30.10,10.0,Calm,Calm,-,N/A,,Clear,0,2013-10-10 21:55:00
6:15 PM,68.0,54.1,61,30.10,10.0,Calm,Calm,-,N/A,,Clear,0,2013-10-10 22:15:00
6:35 PM,65.7,54.7,68,30.10,10.0,Calm,Calm,-,N/A,,Clear,0,2013-10-10 22:35:00
6:55 PM,62.6,55.6,78,30.10,10.0,Calm,Calm,-,N/A,,Clear,0,2013-10-10 22:55:00
7:15 PM,59.7,55.4,86,30.10,10.0,Calm,Calm,-,N/A,,Clear,0,2013-10-10 23:15:00
7:35 PM,57.6,55.4,92,30.10,10.0,Calm,Calm,-,N/A,,Clear,0,2013-10-10 23:35:00
7:54 PM,56.3,53.6,91,30.10,10.0,Calm,Calm,-,N/A,,Clear,0,2013-10-10 23:54:00
8:15 PM,54.9,54.0,97,30.10,10.0,Calm,Calm,-,N/A,,Clear,0,2013-10-11 00:15:00
8:35 PM,53.8,52.7,96,30.10,10.0,Calm,Calm,-,N/A,,Clear,0,2013-10-11 00:35:00
8:55 PM,53.1,52.0,96,30.10,10.0,Calm,Calm,-,N/A,,Clear,0,2013-10-11 00:55:00
9:15 PM,52.5,52.0,98,30.10,10.0,Calm,Calm,-,N/A,,Clear,0,2013-10-11 01:15:00
9:35 PM,52.0,51.3,97,30.10,7.0,Calm,Calm,-,N/A,,Clear,0,2013-10-11 01:35:00
9:55 PM,52.0,51.4,98,30.10,7.0,Calm,Calm,-,N/A,,Clear,0,2013-10-11 01:55:00
10:15 PM,51.1,50.5,98,30.10,7.0,Calm,Calm,-,N/A,,Clear,0,2013-10-11 02:15:00
10:34 PM,50.5,50.0,98,30.10,5.0,Calm,Calm,-,N/A,,Clear,0,2013-10-11 02:34:00
10:55 PM,49.8,49.5,99,30.11,7.0,Calm,Calm,-,N/A,,Clear,0,2013-10-11 02:55:00
11:15 PM,50.2,49.6,98,30.10,10.0,Calm,Calm,-,N/A,,Clear,0,2013-10-11 03:15:00
11:34 PM,49.3,48.7,98,30.10,7.0,Calm,Calm,-,N/A,,Clear,0,2013-10-11 03:34:00
11:55 PM,49.5,48.6,97,30.09,10.0,Calm,Calm,-,N/A,,Clear,0,2013-10-11 03:55:00